Погода в Ногалесе

Мексика     31°18′20″N   110°56′25″W
темп.,
°C
ветер,
м/с
пор.,
м/с
влажн.,
%
обл.,
%
осадки,
мм/ч
давл.,
гПа
погр.,
м
9 декабря, чт
чт923:00+9ю336219 0.0 101712
02:00+8ююв446080 0.0 101621
05:00+7ююв335786 0.0 101515
08:00+9ю4550100 0.0 101662
11:00+16ююз9122789 0.0 10151169
14:00+15ююз12143369 0.0 10121118
17:00+12ююз8124312 0.0 1012457
20:00+11юз101355100 0.0 1013887
10 декабря, пт
пт1023:00+8ююз6128299 0.1 1014778
02:00+8юз71295100 0.6 1014961
05:00+8юз91394100 1.4 1014903
08:00+8юз61196100 0.7 1016736
11:00+9юз588773 1.3 1017594
14:00+12юз676569 0.3 10151312
17:00+10ююз4668100 0.4 1016521
20:00+9ю237689 0.2 101899
11 декабря, сб
сб1123:00+7з1179100 0.3 101910
02:00+5в11840 0.0 101910
05:00+4всв11880 0.0 101910
08:00+6всв22850 0.0 102111
11:00+12в23460 0.0 1020673
14:00+15вюв11280 0.0 10171135
17:00+12вюв11390 0.0 101610
20:00+9юв11440 0.0 101710
12 декабря, вс
вс1223:00+7в11500 0.0 101810
02:00+7в22600 0.0 101710
05:00+6в22610 0.0 101610
08:00+8вюв22450 0.0 101810
11:00+17ююв23230 0.0 1016630
14:00+19ююз55175 0.0 10141137
17:00+15ююз4429100 0.0 101539
20:00+12ю3336100 0.0 101711
13 декабря, пн
пн1323:00+11ююв3343100 0.0 101716
02:00+10ююв3352100 0.0 101814
05:00+9юв335693 0.0 101814
08:00+10юв335096 0.0 101925
11:00+18ю6926100 0.0 1019973
14:00+19ююз892461 0.0 10161209
17:00+16ююз573669 0.0 1017100
20:00+13ю33467 0.0 102016